Location: Carri�res
(48.9069°N, 2.1792°E)
Time: 11:40:28
(UTC+00:00)

deb Kosmos- 1898 - Pass Details

Date: 04 August 2021
Orbit: 731 x 754 km, 74.0° (Epoch: 18 September)

Event Time Altitude Azimuth Distance (km) Brightness Sun altitude
Exits shadow 03:22:46 - 265° (W) 2,533 ? -9.8°
Reaches altitude 10° 03:23:47 10° 273° (W) 2,267 ? -9.6°
Maximum altitude 03:27:10 17° 314° (NW) 1,817 ? -9.2°
Drops below altitude 10° 03:30:35 10° 356° (N) 2,284 ? -8.8°
Sets 03:33:46 0° 16° (NNE) 3,216 ? -8.4°
